This is the latest recevied weather packets stored in our database for station/object KC5DAQ-22. If no packets are shown the sender has not sent any weather packets the latest 10 day(s).
| Time | Temp. | Humidity | Pressure | Rain* | Wind** | Luminosity | Snow |
|---|---|---|---|---|---|---|---|
| 1777596482 | 21.67° C | 87% | 1008.1 hPa | 0 mm | - | 7 W/m² | - |
| 1777596423 | 21.67° C | 87% | 1008.2 hPa | 0 mm | - | 7 W/m² | - |
| 1777596362 | 21.67° C | 87% | 1008.1 hPa | 0 mm | - | 7 W/m² | - |
| 1777596303 | 21.67° C | 87% | 1008.3 hPa | 0 mm | - | 5 W/m² | - |
| 1777596244 | 21.67° C | 87% | 1008.2 hPa | 0 mm | - | 7 W/m² | - |
| 1777596183 | 21.67° C | 87% | 1008.3 hPa | 0 mm | - | 7 W/m² | - |
| 1777596123 | 21.67° C | 87% | 1008.2 hPa | 0 mm | - | 7 W/m² | - |
| 1777596063 | 21.67° C | 87% | 1008.1 hPa | 0 mm | - | 7 W/m² | - |
| 1777596004 | 21.67° C | 87% | 1008.2 hPa | 0 mm | - | 7 W/m² | - |
| 1777595942 | 21.67° C | 87% | 1008.1 hPa | 0 mm | - | 7 W/m² | - |
| 1777595883 | 21.67° C | 87% | 1008.1 hPa | 0 mm | - | 7 W/m² | - |
| 1777595823 | 21.67° C | 87% | 1008.2 hPa | 0 mm | - | 7 W/m² | - |
| 1777595764 | 21.67° C | 87% | 1008.2 hPa | 0 mm | - | 7 W/m² | - |
| 1777595703 | 21.67° C | 87% | 1008.3 hPa | 0 mm | - | 7 W/m² | - |
| 1777595643 | 21.67° C | 87% | 1008.3 hPa | 0 mm | - | 7 W/m² | - |
| 1777595583 | 21.67° C | 87% | 1008.3 hPa | 0 mm | - | 7 W/m² | - |
| 1777595522 | 21.67° C | 87% | 1008.2 hPa | 0 mm | - | 9 W/m² | - |
| 1777595462 | 21.67° C | 87% | 1008.1 hPa | 0 mm | - | 9 W/m² | - |
| 1777595404 | 21.67° C | 87% | 1008.1 hPa | 0 mm | - | 9 W/m² | - |
| 1777595342 | 21.67° C | 87% | 1008 hPa | 0 mm | - | 11 W/m² | - |
| 1777595282 | 21.67° C | 86% | 1008 hPa | 0 mm | - | 11 W/m² | - |
| 1777595224 | 21.67° C | 86% | 1008.1 hPa | 0 mm | - | 12 W/m² | - |
| 1777595163 | 21.67° C | 86% | 1008.1 hPa | 0 mm | - | 16 W/m² | - |
| 1777595102 | 21.67° C | 86% | 1008.1 hPa | 0 mm | - | 16 W/m² | - |
| 1777595042 | 21.67° C | 86% | 1008.1 hPa | 0 mm | - | 19 W/m² | - |
* Rain latest hour (hover to see other rain measurements)
** Current wind speed in m/s (hover to see current wind gust speed)